TimePDT,TemperatureF,Dew PointF,Humidity,Sea Level PressureIn,VisibilityMPH,Wind Direction,Wind SpeedMPH,Gust SpeedMPH,PrecipitationIn,Events,Conditions,WindDirDegrees,DateUTC
12:53 AM,63.0,57.0,81,29.97,10.0,WSW,3.5,-,N/A,,Clear,250,2013-08-05 07:53:00
1:53 AM,62.1,55.9,80,29.97,10.0,West,4.6,-,N/A,,Clear,280,2013-08-05 08:53:00
2:53 AM,59.0,55.0,87,29.97,10.0,West,3.5,-,N/A,,Clear,280,2013-08-05 09:53:00
3:53 AM,59.0,55.0,87,29.97,10.0,Calm,Calm,-,N/A,,Clear,0,2013-08-05 10:53:00
4:53 AM,57.0,54.0,89,29.98,10.0,West,3.5,-,N/A,,Clear,270,2013-08-05 11:53:00
5:53 AM,57.0,54.0,89,29.99,10.0,Calm,Calm,-,N/A,,Clear,0,2013-08-05 12:53:00
6:53 AM,57.9,55.0,90,30.00,10.0,WNW,4.6,-,N/A,,Clear,290,2013-08-05 13:53:00
7:53 AM,61.0,57.0,87,30.01,10.0,West,3.5,-,N/A,,Clear,280,2013-08-05 14:53:00
8:53 AM,66.0,57.9,75,30.01,10.0,Calm,Calm,-,N/A,,Clear,0,2013-08-05 15:53:00
9:53 AM,72.0,60.1,66,30.01,10.0,Calm,Calm,-,N/A,,Clear,0,2013-08-05 16:53:00
10:53 AM,77.0,60.1,56,30.01,10.0,Calm,Calm,-,N/A,,Clear,0,2013-08-05 17:53:00
11:53 AM,80.1,60.1,50,30.00,10.0,Calm,Calm,-,N/A,,Clear,0,2013-08-05 18:53:00
12:53 PM,84.0,59.0,43,29.98,10.0,ENE,5.8,-,N/A,,Clear,60,2013-08-05 19:53:00
1:53 PM,84.9,57.9,40,29.97,10.0,Variable,3.5,-,N/A,,Clear,0,2013-08-05 20:53:00
2:53 PM,89.1,57.9,35,29.95,10.0,Variable,3.5,-,N/A,,Clear,0,2013-08-05 21:53:00
3:53 PM,90.0,55.0,30,29.93,10.0,Calm,Calm,-,N/A,,Clear,0,2013-08-05 22:53:00
4:53 PM,91.0,55.9,30,29.91,10.0,Variable,3.5,-,N/A,,Clear,0,2013-08-05 23:53:00
5:53 PM,91.9,55.9,30,29.89,10.0,ENE,5.8,-,N/A,,Clear,70,2013-08-06 00:53:00
6:53 PM,89.1,57.9,35,29.88,10.0,SSW,6.9,-,N/A,,Clear,200,2013-08-06 01:53:00
7:53 PM,82.0,55.9,41,29.90,10.0,SW,10.4,-,N/A,,Clear,220,2013-08-06 02:53:00
8:53 PM,81.0,55.0,41,29.91,10.0,North,6.9,-,N/A,,Clear,360,2013-08-06 03:53:00
9:53 PM,72.0,55.0,55,29.93,10.0,WNW,3.5,-,N/A,,Clear,300,2013-08-06 04:53:00
10:53 PM,66.9,54.0,63,29.94,10.0,West,5.8,-,N/A,,Clear,270,2013-08-06 05:53:00
11:53 PM,64.0,53.1,67,29.94,10.0,West,6.9,-,N/A,,Clear,270,2013-08-06 06:53:00